[[{"header":{"parameterUnit":"m.s-1","parameterCategory":1,"la1":30.2991,"la2":30.254,"lo1":-89.0895,"lo2":-89.0444,"dy":0.0017,"dx":0.0017,"nx":28,"ny":28,"refTime":"2023-11-16T09:00:00:Z","depth":0,"parameterNumber":2,"parameterNumberName":"U-component_of_WINDS"},"data":[0,0,0,0,0,0,0,0,0,0,0,0,0,0,0,0,0,0,0,0,0,0,0,0,0,0,0,0,0,0,0,0,0,0,0,0,0,0,0,0,0,0,0,0,0,0,0,0,0,0,0,0,0,0,0,0,0,0,1.3027,1.3027,0,1.3035,1.3035,1.3035,1.3015,1.3014,1.3014,1.3013,1.3022,1.3023,1.3023,0,0,0,0,0,0,0,0,0,0,0,0,0,1.2993,1.2994,1.3027,1.3027,1.3027,1.3035,1.3035,1.3035,1.3015,1.3014,1.3013,1.3013,1.3021,1.3022,1.3024,0,0,0,0,0,0,0,0,0,0,0,0,0,1.3005,1.2994,1.3027,1.3018,1.3017,1.3035,1.3035,1.3036,1.3015,1.3014,1.3013,1.3012,1.3021,1.3022,1.3024,1.3051,0,0,1.3028,1.3028,0,0,0,0,0,0,0,0,1.3004,1.3006,1.3019,1.3018,1.3017,1.3023,1.3027,1.3041,1.3015,1.3016,1.3013,1.3012,1.3023,1.3024,1.3028,1.3052,1.3052,1.3028,1.3028,1.3029,1.3029,0,0,0,0,0,0,0,1.3004,1.3006,1.303,1.3019,1.3018,1.3013,1.3014,1.3029,1.3025,1.3016,1.3014,1.3016,1.3022,1.3027,1.3028,1.3052,1.3028,1.3029,1.303,1.303,1.31,1.3101,0,0,0,0,0,0,1.3004,1.3005,1.303,1.303,1.3008,1.3015,1.3015,1.3022,1.3025,1.3024,1.3016,1.3015,1.3025,1.3026,1.3028,1.3061,1.3029,1.303,1.3031,1.3099,1.31,1.3101,0,0,0,0,0,0,1.3003,1.3006,1.3029,1.3017,1.302,1.3016,1.3024,1.3023,1.3027,1.3025,1.3024,1.3021,1.3024,1.3026,1.3046,1.3061,1.3031,1.3032,1.3097,1.3099,1.3101,1.3127,0,0,0,0,0,0,1.3002,1.3006,1.3016,1.3018,1.3021,1.3047,1.3025,1.3024,1.3029,1.3027,1.303,1.3029,1.3024,1.3044,1.3047,1.3062,1.3033,1.3096,1.3098,1.31,1.3124,1.3129,1.3133,0,0,0,0,0,1.3001,1.3023,1.3017,1.302,1.3033,1.3048,1.3049,1.3043,1.3031,1.3041,1.304,1.3029,1.3059,1.3046,1.3049,1.3065,1.3095,1.3098,1.31,1.3123,1.3128,1.3133,0,0,0,0,0,0,1.3023,1.3023,1.3016,1.3039,1.3044,1.3044,1.3057,1.3049,1.3056,1.3054,1.3045,1.3046,1.3067,1.3068,1.3054,1.3092,1.3075,1.3078,1.3091,1.3096,1.31,1.31,1.3034,0,0,0,0,0,1.3031,1.3042,1.3042,1.3062,1.3064,1.3061,1.3066,1.3061,1.3065,1.3067,1.3067,1.3072,1.3082,1.3089,1.3099,1.3125,1.3125,1.3137,1.3141,1.3145,1.3148,1.3162,1.3168,1.3109,1.3109,1.3109,0,0,1.3046,1.3048,1.3055,1.3066,1.3069,1.3082,1.3062,1.3076,1.3085,1.3069,1.3087,1.3088,1.3093,1.3116,1.3126,1.3117,1.3164,1.3148,1.3151,1.3152,1.3165,1.3171,1.3176,1.3111,1.3111,1.311,0,0,1.3081,1.3083,1.3101,1.3104,1.3109,1.3106,1.311,1.3112,1.3112,1.3131,1.3119,1.313,1.3148,1.3152,1.3157,1.3195,1.3185,1.3198,1.322,1.3234,1.3239,1.3243,1.3257,1.3262,1.3201,1.3201,1.3201,0,1.31,1.3118,1.3111,1.3125,1.3131,1.3117,1.3135,1.3139,1.3147,1.3151,1.3141,1.3164,1.3166,1.319,1.32,1.3204,1.3209,1.3197,1.3239,1.3243,1.3246,1.3259,1.3265,1.3202,1.3202,1.3202,1.3202,0,1.3141,1.3154,1.3167,1.3175,1.3182,1.3199,1.3194,1.3202,1.3197,1.3195,1.3215,1.3217,1.3227,1.3233,1.3227,1.3256,1.3251,1.324,1.3222,1.3254,1.3266,1.3271,1.3205,1.3204,1.3204,1.3203,0,0,1.3189,1.3193,1.3199,1.3202,1.3207,1.3217,1.3233,1.3243,1.3251,1.3257,1.327,1.3286,1.3277,1.3282,1.3277,1.3289,1.332,1.3277,1.3277,1.3285,1.3353,1.3361,1.3367,1.3314,1.3315,1.3315,1.3353,0,1.3223,1.3251,1.3245,1.3273,1.3285,1.3273,1.3287,1.3292,1.3291,1.3301,1.3301,1.3313,1.3299,1.3302,1.3314,1.3313,1.3333,1.3311,1.3326,1.3327,1.3326,1.3373,1.3382,1.3417,1.3357,1.3358,1.3359,0,1.3267,1.3275,1.3304,1.3307,1.3312,1.3325,1.3334,1.3344,1.335,1.3349,1.3355,1.3348,1.3364,1.3347,1.337,1.3355,1.3361,1.3362,1.3363,1.3364,1.3345,1.3376,1.3427,1.3433,1.3366,1.3365,1.3365,0,1.33,1.3318,1.3337,1.3341,1.3346,1.3355,1.3357,1.3362,1.3369,1.3377,1.3381,1.3391,1.3397,1.3405,1.3401,1.3389,1.3425,1.3407,1.3425,1.3425,1.3433,1.3432,1.3487,1.3437,1.3437,1.3437,1.3437,0,1.3339,1.3357,1.3352,1.3364,1.3384,1.3378,1.3398,1.3399,1.3403,1.3416,1.3406,1.3418,1.3412,1.3423,1.342,1.344,1.3443,1.3443,1.3442,1.3443,1.3443,1.3447,1.3445,1.3438,1.3438,1.3438,1.3437,0,1.3378,1.3376,1.3397,1.34,1.3401,1.3416,1.3418,1.343,1.3429,1.3445,1.3448,1.3447,1.346,1.3457,1.3471,1.3469,1.3494,1.349,1.3492,1.3491,1.351,1.3508,1.3568,1.3576,1.3521,1.3522,1.3522,0,1.3404,1.3417,1.3422,1.343,1.3433,1.3445,1.3452,1.3447,1.3455,1.3463,1.3474,1.3486,1.3496,1.3517,1.3518,1.3529,1.3525,1.3545,1.3527,1.3528,1.3526,1.3525,1.3527,1.3549,1.355,1.355,1.3551,0,1.3449,1.3447,1.3457,1.3468,1.3477,1.3485,1.3492,1.3499,1.3494,1.3503,1.3517,1.3525,1.354,1.3552,1.3563,1.3566,1.3558,1.3557,1.3561,1.3563,1.3564,1.3564,1.3503,1.3555,1.3555,1.3554,1.3554,1.3554,1.3482,1.3494,1.3499,1.3511,1.3516,1.3523,1.3535,1.3535,1.3547,1.3558,1.3555,1.3571,1.3577,1.359,1.3594,1.3607,1.3599,1.3606,1.3607,1.3609,1.3612,1.3562,1.3608,1.3608,1.3608,1.3608,1.3608,0,1.3527,1.353,1.3541,1.3552,1.3562,1.3553,1.3561,1.357,1.3584,1.359,1.36,1.3616,1.3629,1.363,1.3642,1.3652,1.3649,1.3655,1.3655,1.3655,1.3617,1.3612,1.3658,1.3658,1.3658,1.3658,1.3658,1.3658,1.3551,1.3571,1.357,1.3593,1.3596,1.3611,1.3616,1.3623,1.3628,1.3646,1.3657,1.3658,1.3663,1.3675,1.3686,1.3687,1.3691,1.37,1.3699,1.3663,1.3658,1.3653,1.3648,1.3701,1.3701,1.3735,1.3736,1.3736]},{"header":{"parameterUnit":"m.s-1","parameterCategory":1,"la1":30.2991,"la2":30.254,"lo1":-89.0895,"lo2":-89.0444,"dy":0.0017,"dx":0.0017,"nx":28,"ny":28,"refTime":"2023-11-16T09:00:00:Z","depth":0,"parameterNumber":3,"parameterNumberName":"V-component_of_WINDS"},"data":[0,0,0,0,0,0,0,0,0,0,0,0,0,0,0,0,0,0,0,0,0,0,0,0,0,0,0,0,0,0,0,0,0,0,0,0,0,0,0,0,0,0,0,0,0,0,0,0,0,0,0,0,0,0,0,0,0,0,-4.2988,-4.2989,0,-4.3121,-4.3122,-4.3123,-4.3122,-4.312,-4.3119,-4.3117,-4.3247,-4.3252,-4.3257,0,0,0,0,0,0,0,0,0,0,0,0,0,-4.273,-4.2735,-4.2988,-4.299,-4.2991,-4.312,-4.3122,-4.3124,-4.3122,-4.312,-4.3118,-4.3116,-4.3245,-4.3251,-4.3257,0,0,0,0,0,0,0,0,0,0,0,0,0,-4.285,-4.2736,-4.2988,-4.3006,-4.3009,-4.312,-4.3122,-4.3124,-4.3123,-4.312,-4.3118,-4.3115,-4.3243,-4.3251,-4.3258,-4.3358,0,0,-4.3281,-4.3285,0,0,0,0,0,0,0,0,-4.2843,-4.2859,-4.3002,-4.3005,-4.3009,-4.3102,-4.3079,-4.3202,-4.3123,-4.3079,-4.3117,-4.3114,-4.3201,-4.3211,-4.3242,-4.3364,-4.3369,-4.3282,-4.3287,-4.329,-4.3292,0,0,0,0,0,0,0,-4.2835,-4.2854,-4.304,-4.3004,-4.3008,-4.3007,-4.3021,-4.3102,-4.3153,-4.3083,-4.3083,-4.3099,-4.3202,-4.3235,-4.3245,-4.3371,-4.3282,-4.3289,-4.3293,-4.3296,-4.3584,-4.3587,0,0,0,0,0,0,-4.2823,-4.2847,-4.3036,-4.3044,-4.2918,-4.3014,-4.3029,-4.3075,-4.3152,-4.3161,-4.3101,-4.3099,-4.3223,-4.3236,-4.3249,-4.3373,-4.329,-4.3297,-4.3302,-4.3581,-4.3585,-4.3588,0,0,0,0,0,0,-4.2818,-4.284,-4.3031,-4.2946,-4.297,-4.3021,-4.3072,-4.3079,-4.3111,-4.3166,-4.3174,-4.3126,-4.3221,-4.3239,-4.3332,-4.3378,-4.3301,-4.3308,-4.3577,-4.3582,-4.3586,-4.362,0,0,0,0,0,0,-4.281,-4.2838,-4.2877,-4.2947,-4.2974,-4.3112,-4.3074,-4.3083,-4.3125,-4.3123,-4.3191,-4.32,-4.3221,-4.332,-4.3339,-4.3387,-4.3313,-4.3573,-4.3579,-4.3585,-4.3615,-4.3625,-4.3634,0,0,0,0,0,-4.2801,-4.2879,-4.2879,-4.2902,-4.3024,-4.3114,-4.313,-4.3154,-4.3129,-4.3168,-4.3204,-4.3198,-4.3369,-4.333,-4.3351,-4.3401,-4.3571,-4.3578,-4.3584,-4.3611,-4.3623,-4.3633,0,0,0,0,0,0,-4.2811,-4.2889,-4.2889,-4.2993,-4.3047,-4.3114,-4.3164,-4.3166,-4.3227,-4.3222,-4.3248,-4.3263,-4.3357,-4.3388,-4.3343,-4.3503,-4.3467,-4.3478,-4.3479,-4.3492,-4.3501,-4.3492,-4.332,0,0,0,0,0,-4.2826,-4.2894,-4.2957,-4.3042,-4.307,-4.3113,-4.3152,-4.3167,-4.3224,-4.3246,-4.3288,-4.3342,-4.3409,-4.3452,-4.3515,-4.3619,-4.3635,-4.3664,-4.3674,-4.3681,-4.3691,-4.3751,-4.3765,-4.361,-4.361,-4.361,0,0,-4.2856,-4.2907,-4.2948,-4.3046,-4.309,-4.3159,-4.3132,-4.3205,-4.3257,-4.3256,-4.3348,-4.3381,-4.3443,-4.3543,-4.3589,-4.3572,-4.3738,-4.369,-4.3696,-4.3702,-4.3759,-4.3774,-4.3787,-4.3615,-4.3614,-4.3614,0,0,-4.2947,-4.2992,-4.3069,-4.3114,-4.3183,-4.3211,-4.3229,-4.3297,-4.332,-4.3413,-4.3415,-4.3475,-4.3589,-4.3634,-4.3672,-4.3783,-4.378,-4.3803,-4.3852,-4.391,-4.3922,-4.3933,-4.3975,-4.3989,-4.3812,-4.3812,-4.3812,0,-4.2975,-4.3081,-4.3107,-4.3183,-4.3227,-4.3232,-4.3311,-4.3353,-4.3437,-4.3467,-4.3448,-4.3593,-4.3634,-4.3746,-4.3774,-4.3803,-4.3826,-4.3795,-4.3919,-4.393,-4.394,-4.398,-4.3996,-4.3815,-4.3814,-4.3814,-4.3814,0,-4.3114,-4.3187,-4.3241,-4.3327,-4.3376,-4.3452,-4.349,-4.3536,-4.3547,-4.3577,-4.3673,-4.3724,-4.3799,-4.3827,-4.3836,-4.394,-4.3928,-4.3913,-4.3877,-4.3957,-4.3995,-4.4011,-4.3818,-4.3817,-4.3817,-4.3816,0,0,-4.3213,-4.3314,-4.3334,-4.3374,-4.3451,-4.3508,-4.3585,-4.3661,-4.3702,-4.376,-4.3826,-4.3923,-4.3911,-4.3954,-4.3969,-4.4019,-4.4107,-4.3999,-4.4001,-4.4019,-4.4228,-4.424,-4.4257,-4.4106,-4.4109,-4.4111,-4.4223,0,-4.3313,-4.3453,-4.348,-4.36,-4.367,-4.3677,-4.3745,-4.3799,-4.383,-4.3892,-4.3925,-4.3995,-4.3972,-4.3999,-4.4049,-4.4086,-4.415,-4.4078,-4.4167,-4.417,-4.4153,-4.4276,-4.4289,-4.4392,-4.4238,-4.4241,-4.4242,0,-4.3448,-4.3514,-4.3643,-4.3714,-4.3744,-4.3804,-4.3878,-4.3937,-4.3999,-4.4018,-4.4068,-4.4078,-4.4158,-4.4119,-4.423,-4.4181,-4.4219,-4.4242,-4.4247,-4.4257,-4.4212,-4.4291,-4.4425,-4.4441,-4.4266,-4.4264,-4.4262,0,-4.3511,-4.3631,-4.3724,-4.3758,-4.3842,-4.3885,-4.3921,-4.3981,-4.4026,-4.409,-4.412,-4.4191,-4.4231,-4.4285,-4.4314,-4.4283,-4.4425,-4.4387,-4.4443,-4.4442,-4.4473,-4.447,-4.4616,-4.4495,-4.4495,-4.4494,-4.4494,0,-4.3621,-4.3699,-4.3754,-4.3811,-4.39,-4.393,-4.4017,-4.4053,-4.4106,-4.4171,-4.418,-4.424,-4.4274,-4.4339,-4.4361,-4.4452,-4.4468,-4.4486,-4.4492,-4.4486,-4.4484,-4.4512,-4.4506,-4.4499,-4.4498,-4.4497,-4.4496,0,-4.3705,-4.3744,-4.3847,-4.392,-4.394,-4.4002,-4.4064,-4.412,-4.4151,-4.4233,-4.4254,-4.4303,-4.438,-4.4415,-4.4508,-4.4524,-4.4627,-4.4626,-4.4607,-4.4609,-4.4664,-4.4659,-4.4834,-4.4859,-4.472,-4.4721,-4.4722,0,-4.3773,-4.3834,-4.3915,-4.396,-4.3999,-4.407,-4.4118,-4.415,-4.4199,-4.4276,-4.4323,-4.4401,-4.4465,-4.4588,-4.4631,-4.4704,-4.4706,-4.4762,-4.4717,-4.4711,-4.4709,-4.4706,-4.4713,-4.477,-4.4772,-4.4773,-4.4774,0,-4.389,-4.3908,-4.3977,-4.4054,-4.4111,-4.4172,-4.4232,-4.4268,-4.431,-4.4364,-4.4445,-4.4495,-4.4593,-4.4671,-4.4747,-4.4783,-4.4786,-4.4788,-4.4805,-4.4801,-4.4788,-4.4798,-4.4631,-4.4784,-4.4783,-4.4782,-4.4782,-4.4781,-4.397,-4.4026,-4.4092,-4.417,-4.4219,-4.4276,-4.4333,-4.4373,-4.4442,-4.4526,-4.454,-4.4627,-4.4689,-4.4792,-4.4832,-4.4899,-4.4885,-4.491,-4.4916,-4.4922,-4.4926,-4.4777,-4.4913,-4.4912,-4.4912,-4.4912,-4.4912,0,-4.4089,-4.4133,-4.4204,-4.429,-4.4351,-4.4351,-4.4418,-4.4468,-4.4545,-4.4604,-4.4668,-4.4762,-4.4838,-4.4888,-4.4965,-4.501,-4.5013,-4.5029,-4.5027,-4.5036,-4.4933,-4.4912,-4.5025,-4.5025,-4.5025,-4.5025,-4.5025,-4.5025,-4.4159,-4.4254,-4.428,-4.4401,-4.4444,-4.453,-4.4569,-4.4622,-4.4669,-4.4774,-4.4839,-4.4872,-4.4928,-4.501,-4.508,-4.5093,-4.5121,-4.5138,-4.5151,-4.5054,-4.5042,-4.5031,-4.5011,-4.5144,-4.5144,-4.5248,-4.5249,-4.5249]}]]